| time (UTC) | temp C | wind direction | speed KPH | gust KPH | rain 1hr cm | rain 24hr cm | rain mn cm | humidity % | barometer mb |
| 20260903080006 | 16 | 151 | 3.2 | 11.3 | 0.03 | 0.36 | 0.23 | 93 | 1011.2 |
| 20260903075506 | 15 | 176 | 4.8 | 9.7 | 0.03 | 0.36 | 0.23 | 93 | 1011.3 |
| 20260903075008 | 16 | 190 | 4.8 | 9.7 | 0.00 | 0.33 | 0.20 | 94 | 1011.4 |
| 20260903074506 | 15 | 171 | 3.2 | 9.7 | 0.00 | 0.33 | 0.20 | 94 | 1011.4 |
| 20260903074004 | 15 | 190 | 4.8 | 9.7 | 0.00 | 0.33 | 0.20 | 94 | 1011.4 |
| 20260903073504 | 15 | 208 | 1.6 | 9.7 | 0.00 | 0.30 | 0.18 | 94 | 1011.4 |
| 20260903073008 | 15 | 197 | 4.8 | 9.7 | 0.00 | 0.30 | 0.18 | 94 | 1011.4 |
| 20260903072503 | 15 | 188 | 3.2 | 9.7 | 0.00 | 0.30 | 0.18 | 94 | 1011.5 |
| 20260903072004 | 15 | 153 | 3.2 | 9.7 | 0.00 | 0.30 | 0.18 | 94 | 1011.5 |
| 20260903071507 | 15 | 195 | 3.2 | 9.7 | 0.00 | 0.30 | 0.18 | 94 | 1011.6 |
| 20260903071006 | 15 | 162 | 3.2 | 9.7 | 0.00 | 0.30 | 0.18 | 94 | 1011.6 |
| 20260903070507 | 15 | 229 | 6.4 | 9.7 | 0.00 | 0.30 | 0.18 | 94 | 1011.6 |
| 20260903070008 | 15 | 148 | 3.2 | 9.7 | 0.00 | 0.30 | 0.18 | 94 | 1011.6 |
| 20260903065504 | 15 | 221 | 1.6 | 9.7 | 0.00 | 0.30 | 0.18 | 94 | 1011.7 |
| 20260903065006 | 15 | 189 | 4.8 | 9.7 | 0.00 | 0.30 | 0.18 | 94 | 1011.7 |
| 20260903064508 | 15 | 228 | 3.2 | 6.4 | 0.00 | 0.30 | 0.18 | 94 | 1011.8 |
| 20260903064003 | 15 | 219 | 3.2 | 6.4 | 0.00 | 0.30 | 0.18 | 94 | 1011.9 |
| 20260903063504 | 15 | 222 | 1.6 | 6.4 | 0.00 | 0.30 | 0.18 | 94 | 1012.0 |
| 20260903063007 | 15 | 153 | 1.6 | 6.4 | 0.00 | 0.30 | 0.18 | 94 | 1012.0 |
| 20260903062506 | 15 | 165 | 3.2 | 6.4 | 0.00 | 0.30 | 0.18 | 94 | 1012.0 |
| 20260903062007 | 15 | 169 | 1.6 | 4.8 | 0.00 | 0.30 | 0.18 | 94 | 1012.1 |
| 20260903061507 | 15 | 139 | 1.6 | 3.2 | 0.00 | 0.30 | 0.18 | 94 | 1012.2 |
| 20260903061008 | 14 | 134 | 1.6 | 4.8 | 0.00 | 0.30 | 0.18 | 94 | 1012.2 |
| 20260903060507 | 14 | 146 | 1.6 | 4.8 | 0.00 | 0.30 | 0.18 | 94 | 1012.3 |
| 20260903060008 | 14 | 159 | 1.6 | 3.2 | 0.00 | 0.30 | 0.18 | 94 | 1012.3 |
| 20260903055504 | 14 | 173 | 0.0 | 3.2 | 0.00 | 0.30 | 0.18 | 94 | 1012.4 |
| 20260903055006 | 14 | 173 | 0.0 | 3.2 | 0.03 | 0.30 | 0.18 | 94 | 1012.4 |
| 20260903054512 | 13 | 172 | 0.0 | 3.2 | 0.03 | 0.30 | 0.18 | 94 | 1012.5 |
| 20260903054008 | 13 | 182 | 0.0 | 3.2 | 0.03 | 0.30 | 0.18 | 94 | 1012.5 |
| 20260903053508 | 13 | 182 | 1.6 | 1.6 | 0.03 | 0.30 | 0.18 | 94 | 1012.5 |
| 20260903053010 | 13 | 182 | 1.6 | 1.6 | 0.03 | 0.30 | 0.18 | 94 | 1012.5 |
| 20260903052509 | 13 | 182 | 1.6 | 3.2 | 0.05 | 0.30 | 0.18 | 94 | 1012.6 |
| 20260903052007 | 13 | 182 | 0.0 | 3.2 | 0.05 | 0.30 | 0.18 | 94 | 1012.6 |
| 20260903051509 | 13 | 182 | 0.0 | 3.2 | 0.08 | 0.30 | 0.18 | 94 | 1012.7 |
| 20260903051008 | 13 | 182 | 1.6 | 3.2 | 0.05 | 0.28 | 0.18 | 94 | 1012.8 |
| 20260903050511 | 13 | 182 | 0.0 | 4.8 | 0.08 | 0.28 | 0.18 | 94 | 1012.8 |
| 20260903050012 | 13 | 182 | 1.6 | 4.8 | 0.10 | 0.28 | 0.18 | 94 | 1012.9 |
| 20260903045508 | 13 | 175 | 1.6 | 4.8 | 0.10 | 0.28 | 0.18 | 94 | 1012.9 |
| 20260903045009 | 13 | 169 | 1.6 | 4.8 | 0.15 | 0.28 | 0.15 | 94 | 1012.9 |
| 20260903044508 | 13 | 168 | 3.2 | 4.8 | 0.15 | 0.28 | 0.15 | 94 | 1012.9 |
| 20260903044005 | 13 | 177 | 1.6 | 4.8 | 0.15 | 0.28 | 0.15 | 94 | 1012.9 |
| 20260903043509 | 13 | 217 | 1.6 | 6.4 | 0.15 | 0.28 | 0.15 | 94 | 1013.0 |
| 20260903043013 | 13 | 217 | 1.6 | 6.4 | 0.15 | 0.28 | 0.15 | 94 | 1012.9 |
| 20260903042508 | 13 | 199 | 3.2 | 6.4 | 0.13 | 0.25 | 0.13 | 94 | 1013.1 |
| 20260903042010 | 13 | 192 | 3.2 | 8.0 | 0.13 | 0.25 | 0.13 | 94 | 1013.1 |
| 20260903041513 | 13 | 172 | 1.6 | 8.0 | 0.10 | 0.23 | 0.10 | 94 | 1013.1 |
| 20260903041009 | 13 | 181 | 1.6 | 3.2 | 0.10 | 0.23 | 0.10 | 94 | 1013.1 |
| 20260903040509 | 13 | 193 | 0.0 | 3.2 | 0.08 | 0.20 | 0.08 | 94 | 1013.2 |
| 20260903040011 | 13 | 191 | 1.6 | 3.2 | 0.05 | 0.18 | 0.05 | 94 | 1013.3 |
| 20260903035507 | 13 | 251 | 0.0 | 3.2 | 0.05 | 0.18 | 0.05 | 94 | 1013.3 |
| 20260903035008 | 13 | 232 | 0.0 | 4.8 | 0.00 | 0.10 | 0.00 | 94 | 1013.3 |
| 20260903034518 | 13 | 229 | 1.6 | 4.8 | 0.00 | 0.10 | 0.00 | 93 | 1013.3 |
| 20260903034008 | 13 | 210 | 3.2 | 4.8 | 0.00 | 0.10 | 0.00 | 94 | 1013.3 |
| 20260903033509 | 13 | 191 | 1.6 | 4.8 | 0.00 | 0.10 | 0.00 | 94 | 1013.3 |
| 20260903033012 | 13 | 228 | 1.6 | 4.8 | 0.00 | 0.10 | 0.00 | 94 | 1013.4 |
| 20260903032511 | 13 | 189 | 1.6 | 3.2 | 0.00 | 0.10 | 0.00 | 93 | 1013.4 |
| 20260903032010 | 12 | 189 | 1.6 | 3.2 | 0.00 | 0.10 | 0.00 | 93 | 1013.4 |
| 20260903031517 | 12 | 189 | 1.6 | 3.2 | 0.00 | 0.10 | 0.00 | 93 | 1013.5 |
| 20260903031010 | 12 | 189 | 1.6 | 3.2 | 0.00 | 0.10 | 0.00 | 93 | 1013.6 |
| 20260903030508 | 12 | 189 | 1.6 | 3.2 | 0.00 | 0.10 | 0.00 | 93 | 1013.6 |
| 20260903030014 | 12 | 189 | 1.6 | 3.2 | 0.00 | 0.10 | 0.00 | 93 | 1013.6 |
| 20260903025508 | 12 | 189 | 1.6 | 3.2 | 0.00 | 0.10 | 0.00 | 93 | 1013.6 |
| 20260903025005 | 12 | 189 | 1.6 | 3.2 | 0.00 | 0.10 | 0.00 | 93 | 1013.6 |
| 20260903024511 | 12 | 189 | 1.6 | 3.2 | 0.00 | 0.10 | 0.00 | 93 | 1013.7 |
| 20260903024008 | 12 | 189 | 0.0 | 3.2 | 0.00 | 0.10 | 0.00 | 93 | 1013.7 |
| 20260903023508 | 12 | 189 | 0.0 | 1.6 | 0.00 | 0.10 | 0.00 | 93 | 1013.7 |
| 20260903023020 | 12 | 189 | 1.6 | 1.6 | 0.00 | 0.10 | 0.00 | 93 | 1013.7 |
| 20260903022511 | 12 | 189 | 0.0 | 1.6 | 0.00 | 0.10 | 0.00 | 93 | 1013.8 |
| 20260903022010 | 12 | 189 | 1.6 | 3.2 | 0.00 | 0.10 | 0.00 | 93 | 1013.8 |
| 20260903021515 | 12 | 188 | 0.0 | 3.2 | 0.00 | 0.10 | 0.00 | 92 | 1013.9 |
| 20260903021011 | 12 | 189 | 0.0 | 3.2 | 0.00 | 0.10 | 0.00 | 92 | 1014.0 |
| 20260903020512 | 12 | 189 | 1.6 | 3.2 | 0.00 | 0.10 | 0.00 | 92 | 1014.0 |
| 20260903020033 | 12 | 189 | 0.0 | 3.2 | 0.00 | 0.10 | 0.00 | 92 | 1014.1 |
| 20260903015510 | 12 | 188 | 0.0 | 3.2 | 0.00 | 0.10 | 0.00 | 92 | 1014.2 |
| 20260903015011 | 12 | 189 | 1.6 | 3.2 | 0.00 | 0.10 | 0.00 | 92 | 1014.1 |
| 20260903014513 | 12 | 189 | 1.6 | 3.2 | 0.00 | 0.10 | 0.00 | 92 | 1014.2 |
| 20260903014009 | 12 | 189 | 0.0 | 3.2 | 0.00 | 0.10 | 0.00 | 92 | 1014.2 |
| 20260903013509 | 13 | 211 | 0.0 | 1.6 | 0.00 | 0.10 | 0.00 | 92 | 1014.2 |
| 20260903013020 | 13 | 211 | 0.0 | 1.6 | 0.00 | 0.10 | 0.00 | 91 | 1014.3 |
| 20260903012510 | 13 | 211 | 1.6 | 1.6 | 0.00 | 0.10 | 0.00 | 91 | 1014.3 |
| 20260903012012 | 13 | 211 | 1.6 | 1.6 | 0.00 | 0.10 | 0.00 | 91 | 1014.3 |
| 20260903011518 | 13 | 216 | 1.6 | 1.6 | 0.00 | 0.10 | 0.00 | 91 | 1014.3 |
| 20260903011015 | 13 | 216 | 1.6 | 1.6 | 0.00 | 0.10 | 0.00 | 91 | 1014.2 |
| 20260903010511 | 13 | 215 | 0.0 | 3.2 | 0.00 | 0.10 | 0.00 | 91 | 1014.3 |
| 20260903010020 | 13 | 215 | 1.6 | 4.8 | 0.00 | 0.10 | 0.00 | 1014.3 | |
| 20260903005511 | 13 | 221 | 1.6 | 8.0 | 0.00 | 0.10 | 0.00 | 1014.3 | |
| 20260903005009 | 13 | 237 | 3.2 | 9.7 | 0.00 | 0.10 | 0.00 | 91 | 1014.3 |
| 20260903004521 | 13 | 261 | 4.8 | 9.7 | 0.00 | 0.10 | 0.00 | 91 | 1014.3 |
| 20260903004012 | 13 | 250 | 4.8 | 6.4 | 0.00 | 0.10 | 0.00 | 91 | 1014.3 |
| 20260903003513 | 13 | 263 | 4.8 | 11.3 | 0.00 | 0.10 | 0.00 | 91 | 1014.4 |
| 20260903003020 | 13 | 240 | 4.8 | 11.3 | 0.00 | 0.10 | 0.00 | 91 | 1014.3 |
| 20260903002517 | 13 | 248 | 6.4 | 12.9 | 0.00 | 0.10 | 0.00 | 91 | 1014.3 |
| 20260903002012 | 13 | 255 | 8.0 | 12.9 | 0.00 | 0.10 | 0.00 | 92 | 1014.4 |
| 20260903001520 | 13 | 258 | 6.4 | 12.9 | 0.00 | 0.10 | 0.00 | 92 | 1014.4 |
| 20260903001010 | 13 | 248 | 9.7 | 14.5 | 0.00 | 0.10 | 0.00 | 92 | 1014.4 |
| 20260903000511 | 13 | 278 | 8.0 | 14.5 | 0.00 | 0.10 | 0.00 | 91 | 1014.4 |
| 20260903000022 | 12 | 246 | 6.4 | 11.3 | 0.00 | 0.10 | 0.00 | 91 | 1014.4 |
| 20260902235511 | 13 | 250 | 4.8 | 9.7 | 0.00 | 0.10 | 0.00 | 91 | 1014.4 |
| 20260902235010 | 13 | 276 | 4.8 | 11.3 | 0.00 | 0.10 | 0.00 | 91 | 1014.4 |
| 20260902234523 | 13 | 275 | 4.8 | 12.9 | 0.00 | 0.10 | 0.00 | 91 | 1014.5 |
| 20260902234013 | 13 | 272 | 4.8 | 12.9 | 0.00 | 0.10 | 0.00 | 91 | 1014.5 |
| 20260902233512 | 13 | 271 | 4.8 | 16.1 | 0.00 | 0.10 | 0.00 | 91 | 1014.5 |
| 20260902233024 | 13 | 257 | 6.4 | 16.1 | 0.00 | 0.10 | 0.00 | 91 | 1014.5 |
| 20260902232514 | 13 | 246 | 4.8 | 12.9 | 0.00 | 0.13 | 0.00 | 1014.5 | |
| 20260902232010 | 13 | 273 | 8.0 | 16.1 | 0.00 | 0.13 | 0.00 | 1014.5 | |
| 20260902231525 | 13 | 268 | 8.0 | 16.1 | 0.00 | 0.13 | 0.00 | 92 | 1014.5 |
| 20260902231013 | 13 | 267 | 9.7 | 16.1 | 0.00 | 0.13 | 0.00 | 92 | 1014.5 |
| 20260902230514 | 13 | 252 | 8.0 | 14.5 | 0.00 | 0.13 | 0.00 | 92 | 1014.5 |
| 20260902230021 | 13 | 270 | 6.4 | 14.5 | 0.00 | 0.13 | 0.00 | 92 | 1014.5 |
| 20260902225513 | 13 | 253 | 6.4 | 16.1 | 0.00 | 0.13 | 0.00 | 92 | 1014.6 |
| 20260902225010 | 13 | 226 | 6.4 | 16.1 | 0.00 | 0.13 | 0.00 | 92 | 1014.6 |
| 20260902224523 | 13 | 256 | 4.8 | 11.3 | 0.00 | 0.13 | 0.00 | 92 | 1014.6 |
| 20260902224012 | 13 | 246 | 6.4 | 11.3 | 0.00 | 0.15 | 0.00 | 92 | 1014.6 |
| 20260902223512 | 13 | 248 | 6.4 | 9.7 | 0.00 | 0.18 | 0.00 | 92 | 1014.5 |
| 20260902223047 | 13 | 235 | 4.8 | 11.3 | 0.00 | 0.18 | 0.00 | 92 | 1014.5 |
| 20260902222514 | 13 | 292 | 4.8 | 14.5 | 0.00 | 0.18 | 0.00 | 92 | 1014.5 |
| 20260902222015 | 13 | 267 | 6.4 | 14.5 | 0.00 | 0.18 | 0.00 | 92 | 1014.5 |
| 20260902221524 | 13 | 262 | 6.4 | 16.1 | 0.00 | 0.18 | 0.00 | 92 | 1014.5 |
| 20260902221011 | 13 | 252 | 8.0 | 17.7 | 0.00 | 0.18 | 0.00 | 92 | 1014.5 |
| 20260902220512 | 14 | 246 | 8.0 | 17.7 | 0.00 | 0.18 | 0.00 | 92 | 1014.5 |
| 20260902220016 | 14 | 262 | 8.0 | 16.1 | 0.00 | 0.18 | 0.00 | 92 | 1014.5 |
| 20260902215515 | 14 | 277 | 8.0 | 17.7 | 0.00 | 0.18 | 0.18 | 92 | 1014.4 |
| 20260902215012 | 14 | 264 | 11.3 | 17.7 | 0.00 | 0.18 | 0.18 | 92 | 1014.4 |
| 20260902214524 | 14 | 247 | 11.3 | 19.3 | 0.00 | 0.18 | 0.18 | 92 | 1014.4 |
| 20260902214013 | 14 | 254 | 14.5 | 20.9 | 0.00 | 0.18 | 0.18 | 92 | 1014.3 |
| 20260902213514 | 14 | 254 | 9.7 | 20.9 | 0.00 | 0.18 | 0.18 | 92 | 1014.3 |
| 20260902213022 | 13 | 259 | 11.3 | 17.7 | 0.00 | 0.18 | 0.18 | 92 | 1014.3 |
| 20260902212513 | 14 | 257 | 11.3 | 16.1 | 0.00 | 0.18 | 0.18 | 92 | 1014.4 |
| 20260902212018 | 14 | 267 | 9.7 | 16.1 | 0.00 | 0.18 | 0.18 | 92 | 1014.3 |
| 20260902211526 | 14 | 252 | 11.3 | 19.3 | 0.00 | 0.18 | 0.18 | 92 | 1014.4 |
| 20260902211014 | 14 | 242 | 12.9 | 20.9 | 0.00 | 0.18 | 0.18 | 92 | 1014.4 |
| 20260902210519 | 14 | 254 | 14.5 | 20.9 | 0.00 | 0.18 | 0.18 | 92 | 1014.4 |
| 20260902210024 | 13 | 246 | 12.9 | 17.7 | 0.00 | 0.18 | 0.18 | 92 | 1014.4 |
| 20260902205512 | 13 | 249 | 8.0 | 19.3 | 0.00 | 0.18 | 0.18 | 92 | 1014.4 |
| 20260902205012 | 14 | 248 | 8.0 | 19.3 | 0.00 | 0.18 | 0.18 | 92 | 1014.4 |
| 20260902204540 | 13 | 239 | 11.3 | 17.7 | 0.00 | 0.18 | 0.18 | 92 | 1014.4 |
| 20260902204016 | 13 | 254 | 11.3 | 16.1 | 0.00 | 0.18 | 0.18 | 92 | 1014.4 |
| 20260902203519 | 14 | 257 | 11.3 | 16.1 | 0.00 | 0.18 | 0.18 | 92 | 1014.5 |
| 20260902203027 | 14 | 248 | 9.7 | 16.1 | 0.00 | 0.18 | 0.18 | 91 | 1014.5 |
| 20260902202515 | 14 | 251 | 9.7 | 17.7 | 0.00 | 0.18 | 0.18 | 91 | 1014.5 |
| 20260902202016 | 14 | 262 | 11.3 | 17.7 | 0.00 | 0.18 | 0.18 | 91 | 1014.5 |
| 20260902201528 | 14 | 261 | 11.3 | 19.3 | 0.00 | 0.18 | 0.18 | 91 | 1014.5 |
| 20260902201012 | 14 | 262 | 12.9 | 19.3 | 0.00 | 0.18 | 0.18 | 92 | 1014.5 |
| 20260902200514 | 14 | 251 | 11.3 | 17.7 | 0.00 | 0.18 | 0.18 | 92 | 1014.5 |
| 20260902200024 | 14 | 234 | 11.3 | 24.1 | 0.00 | 0.18 | 0.18 | 91 | 1014.5 |
| 20260902195515 | 14 | 248 | 11.3 | 24.1 | 0.00 | 0.18 | 0.18 | 91 | 1014.5 |
| 20260902195015 | 14 | 258 | 12.9 | 22.5 | 0.00 | 0.18 | 0.18 | 91 | 1014.4 |
| 20260902194528 | 14 | 254 | 9.7 | 22.5 | 0.00 | 0.18 | 0.18 | 92 | 1014.4 |
| 20260902194014 | 14 | 247 | 9.7 | 19.3 | 0.00 | 0.18 | 0.18 | 91 | 1014.5 |
| 20260902193516 | 14 | 246 | 12.9 | 17.7 | 0.00 | 0.18 | 0.18 | 91 | 1014.4 |
| 20260902193033 | 14 | 245 | 9.7 | 20.9 | 0.00 | 0.23 | 0.18 | 91 | 1014.4 |
| 20260902192513 | 14 | 264 | 11.3 | 20.9 | 0.00 | 0.25 | 0.18 | 91 | 1014.4 |
| 20260902192014 | 14 | 247 | 9.7 | 19.3 | 0.00 | 0.28 | 0.18 | 91 | 1014.4 |
| 20260902191530 | 14 | 255 | 8.0 | 20.9 | 0.00 | 0.28 | 0.18 | 91 | 1014.4 |
| 20260902191015 | 14 | 245 | 11.3 | 20.9 | 0.00 | 0.28 | 0.18 | 91 | 1014.4 |
| 20260902190514 | 14 | 276 | 11.3 | 17.7 | 0.00 | 0.28 | 0.18 | 91 | 1014.4 |
| 20260902190030 | 14 | 237 | 8.0 | 19.3 | 0.00 | 0.28 | 0.18 | 91 | 1014.4 |
| 20260902185515 | 15 | 232 | 11.3 | 19.3 | 0.00 | 0.28 | 0.18 | 91 | 1014.3 |
| 20260902185013 | 15 | 233 | 8.0 | 20.9 | 0.00 | 0.28 | 0.18 | 90 | 1014.2 |
| 20260902184534 | 15 | 247 | 9.7 | 20.9 | 0.00 | 0.28 | 0.18 | 91 | 1014.1 |
| 20260902184014 | 15 | 259 | 11.3 | 19.3 | 0.00 | 0.28 | 0.18 | 91 | 1014.2 |
| 20260902183517 | 15 | 214 | 12.9 | 22.5 | 0.00 | 0.28 | 0.18 | 90 | 1014.1 |
| 20260902183050 | 15 | 256 | 9.7 | 22.5 | 0.00 | 0.28 | 0.18 | 90 | 1014.1 |
| 20260902182515 | 15 | 238 | 11.3 | 16.1 | 0.00 | 0.28 | 0.18 | 90 | 1014.1 |
| 20260902182016 | 15 | 252 | 8.0 | 20.9 | 0.00 | 0.28 | 0.18 | 90 | 1014.1 |
| 20260902181528 | 15 | 223 | 9.7 | 20.9 | 0.00 | 0.28 | 0.18 | 90 | 1014.0 |
| 20260902181016 | 15 | 230 | 9.7 | 19.3 | 0.00 | 0.28 | 0.18 | 90 | 1014.1 |
| 20260902180514 | 15 | 258 | 6.4 | 14.5 | 0.00 | 0.28 | 0.18 | 90 | 1014.1 |
| 20260902180033 | 15 | 201 | 4.8 | 16.1 | 0.00 | 0.28 | 0.18 | 89 | 1014.0 |
| 20260902175516 | 15 | 201 | 8.0 | 16.1 | 0.00 | 0.28 | 0.18 | 89 | 1014.1 |
| 20260902175016 | 15 | 242 | 9.7 | 16.1 | 0.00 | 0.28 | 0.18 | 89 | 1014.1 |
| 20260902174530 | 15 | 246 | 6.4 | 14.5 | 0.00 | 0.28 | 0.18 | 88 | 1014.1 |
| 20260902174016 | 15 | 228 | 6.4 | 19.3 | 0.00 | 0.28 | 0.18 | 88 | 1014.0 |
| 20260902173516 | 15 | 225 | 6.4 | 20.9 | 0.00 | 0.28 | 0.18 | 87 | 1014.0 |
| 20260902173030 | 15 | 268 | 8.0 | 20.9 | 0.00 | 0.28 | 0.18 | 87 | 1014.1 |
| 20260902172515 | 15 | 239 | 11.3 | 20.9 | 0.00 | 0.28 | 0.18 | 87 | 1014.1 |
| 20260902172016 | 16 | 233 | 14.5 | 22.5 | 0.00 | 0.28 | 0.18 | 87 | 1014.1 |
| 20260902171530 | 16 | 227 | 11.3 | 22.5 | 0.00 | 0.28 | 0.18 | 87 | 1014.1 |
| 20260902171015 | 16 | 246 | 14.5 | 22.5 | 0.00 | 0.28 | 0.18 | 87 | 1014.2 |
| 20260902170515 | 16 | 256 | 12.9 | 22.5 | 0.00 | 0.28 | 0.18 | 87 | 1014.1 |
| 20260902170033 | 16 | 233 | 12.9 | 24.1 | 0.00 | 0.28 | 0.18 | 87 | 1014.2 |
| 20260902165516 | 16 | 231 | 9.7 | 24.1 | 0.00 | 0.28 | 0.18 | 87 | 1014.2 |
| 20260902165017 | 16 | 219 | 11.3 | 24.1 | 0.00 | 0.28 | 0.18 | 87 | 1014.2 |
| 20260902164531 | 16 | 240 | 16.1 | 24.1 | 0.00 | 0.28 | 0.18 | 86 | 1014.2 |
| 20260902164014 | 16 | 302 | 11.3 | 20.9 | 0.00 | 0.28 | 0.18 | 87 | 1014.2 |
| 20260902163509 | 16 | 264 | 14.5 | 24.1 | 0.00 | 0.28 | 0.18 | 87 | 1014.2 |
| 20260902163015 | 16 | 250 | 12.9 | 24.1 | 0.00 | 0.28 | 0.18 | 87 | 1014.3 |
| 20260902162511 | 15 | 227 | 9.7 | 25.7 | 0.00 | 0.28 | 0.18 | 87 | 1014.3 |
| 20260902162012 | 15 | 240 | 16.1 | 20.9 | 0.00 | 0.28 | 0.18 | 87 | 1014.3 |
| 20260902161504 | 16 | 242 | 12.9 | 20.9 | 0.00 | 0.28 | 0.18 | 87 | 1014.3 |
| 20260902161004 | 16 | 242 | 9.7 | 22.5 | 0.00 | 0.28 | 0.18 | 86 | 1014.3 |
| 20260902160505 | 16 | 269 | 14.5 | 24.1 | 0.00 | 0.28 | 0.18 | 86 | 1014.3 |
| 20260902160025 | 16 | 267 | 14.5 | 24.1 | 0.00 | 0.28 | 0.18 | 85 | 1014.3 |
| 20260902155505 | 16 | 244 | 11.3 | 24.1 | 0.00 | 0.28 | 0.18 | 86 | 1014.2 |
| 20260902155009 | 16 | 215 | 16.1 | 24.1 | 0.00 | 0.28 | 0.18 | 86 | 1014.3 |
| 20260902154516 | 16 | 255 | 16.1 | 27.4 | 0.00 | 0.28 | 0.18 | 86 | 1014.3 |
| 20260902154010 | 16 | 231 | 12.9 | 27.4 | 0.00 | 0.28 | 0.18 | 88 | 1014.4 |
| 20260902153510 | 16 | 256 | 16.1 | 27.4 | 0.00 | 0.28 | 0.18 | 87 | 1014.4 |
| 20260902153023 | 16 | 264 | 14.5 | 27.4 | 0.00 | 0.28 | 0.18 | 87 | 1014.4 |
| 20260902152514 | 16 | 258 | 11.3 | 20.9 | 0.00 | 0.28 | 0.18 | 87 | 1014.5 |
| 20260902152003 | 16 | 246 | 14.5 | 24.1 | 0.00 | 0.28 | 0.18 | 87 | 1014.5 |
| 20260902151505 | 16 | 254 | 12.9 | 25.7 | 0.00 | 0.28 | 0.18 | 88 | 1014.5 |
| 20260902151004 | 16 | 257 | 12.9 | 25.7 | 0.00 | 0.28 | 0.18 | 87 | 1014.5 |
| 20260902150504 | 16 | 234 | 12.9 | 25.7 | 0.00 | 0.28 | 0.18 | 89 | 1014.5 |
| 20260902150010 | 16 | 248 | 11.3 | 24.1 | 0.00 | 0.28 | 0.18 | 90 | 1014.5 |
| 20260902145506 | 16 | 240 | 11.3 | 24.1 | 0.00 | 0.28 | 0.18 | 90 | 1014.5 |
| 20260902145010 | 16 | 245 | 11.3 | 24.1 | 0.00 | 0.28 | 0.18 | 90 | 1014.6 |
| 20260902144514 | 16 | 242 | 12.9 | 19.3 | 0.00 | 0.28 | 0.18 | 91 | 1014.6 |
| 20260902144012 | 16 | 248 | 9.7 | 19.3 | 0.00 | 0.28 | 0.18 | 91 | 1014.6 |
| 20260902143513 | 16 | 232 | 12.9 | 19.3 | 0.00 | 0.28 | 0.18 | 91 | 1014.5 |
| 20260902143025 | 16 | 234 | 11.3 | 17.7 | 0.05 | 0.28 | 0.18 | 91 | 1014.5 |
| 20260902142514 | 16 | 240 | 12.9 | 17.7 | 0.05 | 0.28 | 0.18 | 90 | 1014.6 |
| 20260902142002 | 16 | 247 | 8.0 | 16.1 | 0.10 | 0.28 | 0.18 | 91 | 1014.6 |
| 20260902141505 | 15 | 257 | 8.0 | 16.1 | 0.10 | 0.28 | 0.18 | 90 | 1014.5 |
| 20260902141008 | 15 | 252 | 8.0 | 16.1 | 0.10 | 0.28 | 0.18 | 91 | 1014.6 |
| 20260902140503 | 15 | 271 | 8.0 | 16.1 | 0.10 | 0.28 | 0.18 | 90 | 1014.6 |
| 20260902140010 | 15 | 263 | 8.0 | 17.7 | 0.10 | 0.28 | 0.18 | 90 | 1014.6 |
| 20260902135512 | 15 | 271 | 6.4 | 17.7 | 0.10 | 0.28 | 0.18 | 90 | 1014.6 |
| 20260902135014 | 15 | 239 | 8.0 | 19.3 | 0.10 | 0.28 | 0.18 | 90 | 1014.7 |
| 20260902134516 | 15 | 248 | 9.7 | 19.3 | 0.10 | 0.28 | 0.18 | 89 | 1014.7 |
| 20260902134013 | 15 | 283 | 12.9 | 20.9 | 0.08 | 0.25 | 0.15 | 88 | 1014.8 |
| 20260902133512 | 15 | 262 | 9.7 | 27.4 | 0.08 | 0.25 | 0.15 | 87 | 1014.8 |
| 20260902133029 | 15 | 272 | 9.7 | 33.8 | 0.05 | 0.20 | 0.10 | 86 | 1014.8 |
| 20260902132517 | 16 | 277 | 16.1 | 48.3 | 0.05 | 0.20 | 0.10 | 82 | 1014.9 |
| 20260902132005 | 17 | 263 | 27.4 | 48.3 | 0.00 | 0.15 | 0.05 | 77 | 1014.9 |
| 20260902131509 | 18 | 242 | 14.5 | 37.0 | 0.00 | 0.15 | 0.05 | 76 | 1014.5 |
| 20260902131008 | 18 | 236 | 17.7 | 29.0 | 0.00 | 0.15 | 0.05 | 77 | 1014.6 |
| 20260902130507 | 18 | 239 | 19.3 | 33.8 | 0.00 | 0.15 | 0.05 | 74 | 1014.5 |
| 20260902130012 | 18 | 251 | 20.9 | 33.8 | 0.00 | 0.15 | 0.05 | 75 | 1014.6 |
| 20260902125511 | 18 | 251 | 24.1 | 32.2 | 0.00 | 0.15 | 0.05 | 73 | 1014.6 |
| 20260902125012 | 19 | 234 | 19.3 | 35.4 | 0.00 | 0.15 | 0.05 | 75 | 1014.5 |
| 20260902124523 | 20 | 246 | 22.5 | 41.8 | 0.00 | 0.15 | 0.05 | 71 | 1014.5 |
| 20260902124020 | 20 | 292 | 19.3 | 41.8 | 0.00 | 0.15 | 0.05 | 74 | 1014.5 |
| 20260902123515 | 20 | 232 | 17.7 | 27.4 | 0.00 | 0.15 | 0.05 | 72 | 1014.5 |
| 20260902123028 | 20 | 232 | 19.3 | 30.6 | 0.00 | 0.15 | 0.05 | 71 | 1014.5 |
| 20260902122503 | 20 | 249 | 16.1 | 30.6 | 0.00 | 0.15 | 0.05 | 71 | 1014.5 |
| 20260902122007 | 19 | 209 | 14.5 | 27.4 | 0.00 | 0.15 | 0.05 | 74 | 1014.5 |
| 20260902121506 | 19 | 242 | 12.9 | 29.0 | 0.00 | 0.15 | 0.05 | 75 | 1014.6 |
| 20260902121008 | 19 | 231 | 17.7 | 29.0 | 0.00 | 0.15 | 0.05 | 73 | 1014.6 |
| 20260902120509 | 19 | 250 | 11.3 | 30.6 | 0.00 | 0.15 | 0.05 | 75 | 1014.6 |
| 20260902120018 | 19 | 250 | 20.9 | 30.6 | 0.00 | 0.15 | 0.05 | 74 | 1014.6 |
| 20260902115510 | 20 | 234 | 12.9 | 25.7 | 0.00 | 0.15 | 0.05 | 77 | 1014.6 |
| 20260902115012 | 19 | 257 | 12.9 | 33.8 | 0.00 | 0.15 | 0.05 | 74 | 1014.7 |
| 20260902114526 | 18 | 248 | 20.9 | 38.6 | 0.00 | 0.15 | 0.05 | 73 | 1014.7 |
| 20260902114014 | 19 | 263 | 16.1 | 38.6 | 0.00 | 0.15 | 0.05 | 73 | 1014.7 |
| 20260902113513 | 19 | 242 | 17.7 | 33.8 | 0.00 | 0.15 | 0.05 | 74 | 1014.8 |
| 20260902113028 | 19 | 248 | 19.3 | 27.4 | 0.00 | 0.15 | 0.05 | 76 | 1014.8 |
| 20260902112503 | 20 | 246 | 12.9 | 25.7 | 0.00 | 0.15 | 0.05 | 74 | 1014.9 |
| 20260902112008 | 20 | 265 | 16.1 | 25.7 | 0.00 | 0.15 | 0.05 | 71 | 1014.9 |
| 20260902111511 | 20 | 269 | 11.3 | 27.4 | 0.00 | 0.15 | 0.05 | 72 | 1015.0 |
| 20260902111010 | 20 | 244 | 17.7 | 33.8 | 0.00 | 0.15 | 0.05 | 71 | 1014.9 |
| 20260902110511 | 20 | 242 | 20.9 | 32.2 | 0.00 | 0.15 | 0.05 | 72 | 1015.0 |
| 20260902110035 | 20 | 236 | 16.1 | 25.7 | 0.00 | 0.15 | 0.05 | 71 | 1015.0 |
| 20260902105515 | 19 | 248 | 14.5 | 32.2 | 0.00 | 0.15 | 0.05 | 73 | 1015.0 |
| 20260902105016 | 19 | 244 | 19.3 | 32.2 | 0.00 | 0.15 | 0.05 | 73 | 1015.0 |
| 20260902104548 | 20 | 246 | 9.7 | 24.1 | 0.00 | 0.15 | 0.05 | 75 | 1015.1 |
| 20260902104017 | 20 | 244 | 12.9 | 25.7 | 0.00 | 0.15 | 0.05 | 74 | 1015.2 |
| 20260902103516 | 20 | 253 | 19.3 | 27.4 | 0.00 | 0.15 | 0.05 | 74 | 1015.1 |
| 20260902103012 | 18 | 259 | 16.1 | 33.8 | 0.00 | 0.15 | 0.05 | 74 | 1015.1 |
| 20260902102506 | 19 | 245 | 14.5 | 33.8 | 0.00 | 0.15 | 0.05 | 73 | 1015.1 |
| 20260902102008 | 20 | 233 | 14.5 | 22.5 | 0.00 | 0.15 | 0.05 | 74 | 1015.1 |
| 20260902101511 | 18 | 282 | 11.3 | 27.4 | 0.00 | 0.15 | 0.05 | 78 | 1015.1 |
| 20260902101012 | 18 | 238 | 12.9 | 27.4 | 0.00 | 0.15 | 0.05 | 77 | 1015.1 |
| 20260902100512 | 18 | 252 | 14.5 | 32.2 | 0.00 | 0.15 | 0.05 | 77 | 1015.1 |
| 20260902100023 | 19 | 240 | 20.9 | 32.2 | 0.00 | 0.15 | 0.05 | 72 | 1015.1 |
| 20260902095513 | 19 | 220 | 12.9 | 29.0 | 0.00 | 0.15 | 0.05 | 76 | 1015.1 |
| 20260902095015 | 18 | 241 | 12.9 | 32.2 | 0.00 | 0.15 | 0.05 | 80 | 1015.2 |
| 20260902094529 | 18 | 238 | 17.7 | 32.2 | 0.00 | 0.15 | 0.05 | 77 | 1015.1 |
| 20260902094017 | 18 | 261 | 17.7 | 25.7 | 0.00 | 0.15 | 0.05 | 77 | 1015.0 |
| 20260902093518 | 18 | 259 | 12.9 | 22.5 | 0.00 | 0.15 | 0.05 | 78 | 1015.1 |
| 20260902093010 | 18 | 250 | 14.5 | 30.6 | 0.00 | 0.15 | 0.05 | 79 | 1015.2 |
| 20260902092506 | 18 | 263 | 17.7 | 30.6 | 0.00 | 0.15 | 0.05 | 80 | 1015.2 |
| 20260902092011 | 18 | 253 | 16.1 | 29.0 | 0.00 | 0.15 | 0.05 | 80 | 1015.2 |
| 20260902091516 | 17 | 264 | 12.9 | 29.0 | 0.00 | 0.15 | 0.05 | 81 | 1015.2 |
| 20260902091013 | 17 | 221 | 14.5 | 27.4 | 0.00 | 0.15 | 0.05 | 81 | 1015.2 |
| 20260902090514 | 17 | 239 | 17.7 | 32.2 | 0.00 | 0.15 | 0.05 | 80 | 1015.2 |
| 20260902090029 | 18 | 240 | 20.9 | 32.2 | 0.00 | 0.15 | 0.05 | 79 | 1015.2 |
| 20260902085515 | 18 | 241 | 12.9 | 30.6 | 0.00 | 0.15 | 0.05 | 84 | 1015.2 |
| 20260902085015 | 17 | 243 | 20.9 | 30.6 | 0.00 | 0.15 | 0.05 | 84 | 1015.2 |
| 20260902084538 | 17 | 219 | 11.3 | 19.3 | 0.00 | 0.15 | 0.05 | 84 | 1015.2 |
| 20260902084017 | 17 | 198 | 12.9 | 19.3 | 0.00 | 0.15 | 0.05 | 87 | 1015.2 |
| 20260902083511 | 17 | 237 | 9.7 | 17.7 | 0.00 | 0.15 | 0.05 | 87 | 1015.3 |
| 20260902083012 | 16 | 250 | 9.7 | 20.9 | 0.00 | 0.15 | 0.05 | 87 | 1015.3 |
| 20260902082508 | 16 | 249 | 8.0 | 20.9 | 0.00 | 0.15 | 0.05 | 88 | 1015.3 |
| 20260902082011 | 16 | 250 | 9.7 | 17.7 | 0.00 | 0.15 | 0.05 | 88 | 1015.3 |
| 20260902081520 | 16 | 233 | 11.3 | 17.7 | 0.00 | 0.15 | 0.05 | 87 | 1015.3 |
| 20260902081011 | 16 | 274 | 6.4 | 20.9 | 0.00 | 0.15 | 0.05 | 88 | 1015.3 |
| 20260902080516 | 16 | 254 | 12.9 | 20.9 | 0.00 | 0.15 | 0.05 | 88 | 1015.3 |